Lid_Strength_Index
0 1 1 1 1 1 2 2 2 2 2 3 2 2 2 2 1 2 6 4 3 1 2 4 5 5 4 6 5 6 9 10 9 10 9 8 9 8 8 8 7 6 6 5 4
2 1 0 1 1 1 1 1 2 2 2 2 2 3 2 2 4 5 2 1 1 1 4 6 7 6 7 7 6 8 9 9 8 8 9 9 9 8 9 9 8 7 5 5 4
3 2 2 1 -0 -0 0 1 1 1 2 2 2 3 3 2 6 6 1 1 1 1 4 5 5 6 8 7 7 8 9 8 9 9 9 9 9 8 9 9 7 7 6 5 5
3 3 3 3 1 -0 -0 0 1 1 1 1 1 2 3 4 12 5 2 2 0 3 4 6 6 8 9 9 8 10 9 9 9 8 9 10 9 10 9 8 7 6 6 5 5
5 4 4 3 2 1 -1 -0 -0 1 1 1 1 2 4 8 9 5 2 2 3 4 5 7 7 8 9 9 9 10 9 9 9 9 9 9 10 9 9 7 6 6 6 6 6
5 5 5 4 3 2 1 -1 -0 0 0 0 1 2 6 11 5 5 5 5 4 5 5 5 7 7 8 9 10 9 9 9 9 9 9 10 10 10 9 7 7 7 7 6 6
5 5 5 5 3 3 1 -0 -1 0 1 1 1 4 8 9 4 4 4 5 5 5 6 5 5 7 7 9 8 9 10 9 9 9 10 9 11 11 8 9 9 7 7 6 6
5 5 5 4 3 2 2 0 -1 -1 -0 1 1 5 7 5 4 5 4 5 5 5 6 5 5 6 7 7 9 10 10 11 10 9 9 10 11 9 9 9 9 8 7 7 6
6 5 5 4 3 2 1 1 -1 -1 -1 0 3 5 6 5 7 5 4 6 5 5 6 6 5 7 7 10 11 10 12 11 11 9 10 11 11 9 9 10 10 9 7 7 6
5 5 4 3 3 2 1 0 -1 -1 1 3 4 7 5 7 5 5 4 5 6 6 7 8 8 10 9 10 13 11 12 11 11 10 11 11 11 9 8 9 10 9 7 7 7
4 4 3 3 2 2 2 1 4 5 3 5 5 6 6 5 4 5 4 6 6 8 10 9 11 13 11 9 9 12 11 12 11 11 11 11 11 9 8 8 9 9 7 7 6
4 3 2 2 2 1 2 4 3 4 7 4 4 5 6 5 7 6 4 7 8 11 9 11 13 10 10 9 11 12 12 12 11 11 12 12 12 10 9 8 8 8 8 6 6
3 2 2 2 1 2 3 2 2 3 7 6 4 5 5 6 7 7 5 7 9 10 10 12 11 10 11 12 12 12 12 12 13 12 11 12 11 9 8 8 8 7 8 6 6
2 2 1 2 4 3 4 1 0 2 11 10 8 6 6 5 8 5 4 6 9 10 10 11 10 12 12 12 12 13 11 11 13 14 14 13 15 10 8 8 9 9 9 8 6
2 1 1 1 2 4 2 0 1 2 18 9 8 6 6 7 7 7 3 6 9 10 10 11 12 12 13 13 11 13 11 12 12 14 14 13 15 11 10 10 9 8 8 9 7
2 1 1 2 2 2 1 0 2 13 17 10 8 9 10 7 8 7 6 5 5 8 9 10 9 10 11 12 12 12 12 13 12 13 16 13 13 12 10 9 8 9 9 9 8
2 1 2 1 4 1 1 4 14 17 10 12 11 9 9 10 9 8 9 10 12 15 14 10 10 10 10 12 12 12 14 16 17 17 18 14 14 12 10 8 9 10 10 9 9
2 2 2 2 0 1 3 10 17 13 13 10 9 9 11 9 10 9 10 12 9 9 12 15 16 11 10 10 12 13 12 15 19 18 15 16 16 12 10 10 10 9 10 9 9
2 2 2 2 1 1 7 15 14 13 9 10 10 12 12 10 10 10 11 11 9 9 13 14 14 9 9 9 9 11 14 11 14 17 16 14 13 10 10 10 10 10 10 10 10
3 4 4 1 1 4 9 13 12 8 8 9 13 11 15 13 12 12 12 9 10 8 7 10 15 11 11 10 10 10 10 14 13 19 19 14 13 13 11 11 11 10 11 10 10
4 7 4 1 1 7 12 12 11 7 8 9 10 13 11 13 12 13 12 9 8 8 7 9 12 13 11 12 12 12 12 12 12 12 17 18 14 12 12 12 12 11 10 10 10
5 10 3 2 9 9 11 10 8 9 7 9 9 9 10 11 12 12 12 10 7 7 10 9 12 15 13 11 10 11 11 12 14 15 13 14 14 11 12 12 12 11 11 10 10
7 8 3 4 12 11 9 10 9 10 10 10 10 9 9 10 13 11 10 8 7 8 10 10 14 17 16 13 12 13 12 11 11 12 15 16 14 10 12 11 12 11 11 11 11
7 11 8 7 8 10 11 11 11 9 9 9 10 9 10 11 10 12 11 9 7 7 7 8 12 14 16 14 12 14 12 11 12 15 14 14 12 10 10 11 10 10 11 11 11
7 9 9 12 11 10 10 12 12 13 10 9 10 10 11 13 12 12 10 9 8 8 8 9 15 13 12 11 11 12 12 12 13 12 15 12 12 10 9 10 10 11 11 12 12
8 9 9 9 10 10 11 12 12 12 11 11 11 10 10 12 11 13 11 10 11 9 9 9 14 13 15 12 12 14 12 12 12 12 12 12 12 9 8 8 9 9 10 11 11
5 4 6 9 11 11 11 11 11 10 10 9 10 10 11 11 9 10 10 10 9 10 11 12 13 14 16 13 14 17 14 12 12 11 11 14 11 9 9 10 9 9 8 9 9